Date String (YYYY-MM-DD hh:mm:ss) UTC,Instrument flags,Ambient pressure (hPa),Sample flow (lpm),Bypass flow (lpm),Sample temperature (°C),Ambient temperature (°C),ASC tube jacket temperature (°C),LED temperature (°C),Box temperature (°C),Sample RH (%),Span deviation,Mass concentration (μg/m³),Mass concentration (μg/m³),Mass concentration (μg/m³)
DateTimeUTC,F1_M11,P_M11,Q1_M11,Q2_M11,T1_M11,T2_M11,T3_M11,T4_M11,T5_M11,U1_M11,ZSPAN_M11,X0_M11,X2_M11,X1_M11
2021-12-02 18:00:00,,0828.2,5.01,0.00,30.4,28.4,00.0,39.4,31.9,09.0,0000.0,0017.20,0003.98,0001.57
2021-12-02 18:01:00,,0828.2,5.00,0.00,30.4,28.7,00.0,39.4,32.0,08.9,0000.0,0017.88,0003.99,0001.57
2021-12-02 18:02:00,,0828.2,4.99,0.00,30.4,28.9,00.0,39.4,32.0,08.9,0000.0,0016.97,0003.94,0001.56
2021-12-02 18:03:00,,0828.2,5.02,0.00,30.4,29.0,00.0,39.4,32.0,08.7,0000.0,0016.15,0003.81,0001.52
2021-12-02 18:04:00,,0828.2,4.99,0.00,30.4,29.2,00.0,39.4,32.1,08.5,0000.0,0015.78,0003.71,0001.45
2021-12-02 18:05:00,,0828.3,5.01,0.00,30.4,29.3,00.0,39.4,32.2,08.6,0000.0,0016.16,0003.62,0001.40
2021-12-02 18:06:00,,0828.2,5.00,0.00,30.5,29.4,00.0,39.4,32.2,08.4,0000.0,0017.50,0003.55,0001.32
2021-12-02 18:07:00,,0828.1,4.99,0.00,30.5,29.5,00.0,39.4,32.3,08.2,0000.0,0018.39,0003.49,0001.25
2021-12-02 18:08:00,,0828.2,5.00,0.00,30.5,29.6,00.0,39.4,32.3,08.2,0000.0,0017.50,0003.38,0001.15
2021-12-02 18:09:00,,0828.2,5.01,0.00,30.6,29.7,00.0,39.5,32.3,08.0,0000.0,0016.36,0003.23,0001.03
2021-12-02 18:10:00,,0828.1,5.01,0.00,30.6,29.8,00.0,39.5,32.4,07.9,0000.0,0015.68,0003.06,0000.94
2021-12-02 18:11:00,,0828.1,4.99,0.00,30.7,29.9,00.0,39.5,32.4,07.8,0000.0,0015.15,0002.81,0000.84
2021-12-02 18:12:00,,0828.1,5.01,0.00,30.7,29.9,00.0,39.5,32.5,07.8,0000.0,0015.37,0002.64,0000.75
2021-12-02 18:13:00,,0828.1,5.00,0.00,30.7,29.8,00.0,39.5,32.5,07.6,0000.0,0015.75,0002.52,0000.69
2021-12-02 18:14:00,,0828.1,4.99,0.00,30.7,27.9,00.0,39.5,32.0,07.6,0000.0,0014.85,0002.34,0000.64
2021-12-02 18:15:00,,0828.0,5.01,0.00,30.5,26.2,00.0,39.5,31.6,07.8,0000.0,0014.95,0002.26,0000.60
2021-12-02 18:16:00,,0828.0,4.99,0.00,30.3,26.4,00.0,39.4,31.7,07.9,0000.0,0014.92,0002.17,0000.56
2021-12-02 18:17:00,,0828.0,5.00,0.00,30.3,26.9,00.0,39.4,31.7,07.4,0000.0,0013.44,0001.98,0000.52
2021-12-02 18:18:00,,0828.0,5.01,0.00,30.2,27.4,00.0,39.3,31.7,07.4,0000.0,0011.42,0001.82,0000.49
2021-12-02 18:19:00,,0828.0,4.99,0.00,30.2,27.8,00.0,39.3,31.8,07.5,0000.0,0010.89,0001.69,0000.46
2021-12-02 18:20:00,,0827.9,4.99,0.00,30.2,28.2,00.0,39.3,31.9,07.7,0000.0,0010.74,0001.68,0000.45
2021-12-02 18:21:00,,0827.9,5.00,0.00,30.2,28.5,00.0,39.3,31.9,07.8,0000.0,0010.87,0001.70,0000.43
2021-12-02 18:22:00,,0827.9,5.00,0.00,30.3,28.8,00.0,39.3,32.0,08.0,0000.0,0011.13,0001.68,0000.44
2021-12-02 18:23:00,,0827.8,5.01,0.00,30.3,29.0,00.0,39.3,32.0,08.1,0000.0,0011.00,0001.64,0000.45
2021-12-02 18:24:00,,0827.9,4.98,0.00,30.3,29.1,00.0,39.3,32.1,08.2,0000.0,0010.93,0001.60,0000.46
2021-12-02 18:25:00,,0827.9,5.00,0.00,30.4,29.2,00.0,39.3,32.1,08.3,0000.0,0011.90,0001.69,0000.48
2021-12-02 18:26:00,,0827.8,5.01,0.00,30.4,29.3,00.0,39.3,32.1,08.6,0000.0,0014.21,0001.82,0000.50
2021-12-02 18:27:00,,0827.8,4.99,0.00,30.4,29.4,00.0,39.3,32.2,08.7,0000.0,0014.30,0001.85,0000.53
2021-12-02 18:28:00,,0827.8,5.01,0.00,30.5,29.5,00.0,39.3,32.2,08.7,0000.0,0014.60,0001.98,0000.58
2021-12-02 18:29:00,,0827.8,5.00,0.00,30.5,29.6,00.0,39.3,32.3,08.7,0000.0,0015.17,0002.07,0000.61
2021-12-02 18:30:00,,0827.8,5.01,0.00,30.5,29.6,00.0,39.4,32.3,08.6,0000.0,0015.26,0002.20,0000.65
2021-12-02 18:31:00,,0827.8,5.00,0.00,30.6,29.7,00.0,39.4,32.3,08.6,0000.0,0016.39,0002.28,0000.69
2021-12-02 18:32:00,,0827.7,5.01,0.00,30.6,29.7,00.0,39.4,32.3,08.7,0000.0,0017.34,0002.36,0000.72
2021-12-02 18:33:00,,0827.7,5.00,0.00,30.6,29.8,00.0,39.4,32.4,08.8,0000.0,0017.13,0002.50,0000.75
2021-12-02 18:34:00,,0827.7,5.00,0.00,30.7,29.8,00.0,39.5,32.4,08.8,0000.0,0016.08,0002.58,0000.78
2021-12-02 18:35:00,,0827.7,5.00,0.00,30.7,29.5,00.0,39.5,32.4,08.8,0000.0,0015.59,0002.66,0000.81
2021-12-02 18:36:00,,0827.7,4.99,0.00,30.6,27.4,00.0,39.5,31.8,08.8,0000.0,0015.17,0002.64,0000.83
2021-12-02 18:37:00,,0827.7,5.00,0.00,30.4,26.0,00.0,39.4,31.4,08.7,0000.0,0012.65,0002.55,0000.86
2021-12-02 18:38:00,,0827.7,5.01,0.00,30.3,26.3,00.0,39.4,31.5,08.8,0000.0,0012.28,0002.57,0000.87
2021-12-02 18:39:00,,0827.6,5.00,0.00,30.2,26.8,00.0,39.3,31.5,08.7,0000.0,0013.12,0002.59,0000.88
2021-12-02 18:40:00,,0827.6,5.00,0.00,30.1,27.3,00.0,39.3,31.6,08.7,0000.0,0013.36,0002.62,0000.90
2021-12-02 18:41:00,,0827.6,5.00,0.00,30.1,27.7,00.0,39.2,31.6,08.8,0000.0,0013.30,0002.60,0000.92
2021-12-02 18:42:00,,0827.5,5.00,0.00,30.1,28.1,00.0,39.2,31.7,08.8,0000.0,0012.50,0002.61,0000.95
2021-12-02 18:43:00,,0827.5,4.99,0.00,30.1,28.4,00.0,39.2,31.8,08.9,0000.0,0012.17,0002.63,0000.97
2021-12-02 18:44:00,,0827.5,5.00,0.00,30.2,28.6,00.0,39.2,31.9,09.0,0000.0,0012.64,0002.58,0000.99
2021-12-02 18:45:00,,0827.5,4.99,0.00,30.2,28.8,00.0,39.2,31.9,08.9,0000.0,0012.60,0002.55,0001.00
2021-12-02 18:46:00,,0827.5,5.00,0.00,30.2,29.0,00.0,39.2,32.0,09.0,0000.0,0013.36,0002.55,0001.01
2021-12-02 18:47:00,,0827.5,5.00,0.00,30.2,29.1,00.0,39.2,32.0,09.0,0000.0,0013.61,0002.63,0001.02
2021-12-02 18:48:00,,0827.5,5.01,0.00,30.3,29.2,00.0,39.2,32.0,09.0,0000.0,0013.59,0002.67,0001.03
2021-12-02 18:49:00,,0827.5,4.99,0.00,30.3,29.3,00.0,39.2,32.1,09.1,0000.0,0014.68,0002.76,0001.04
2021-12-02 18:50:00,,0827.5,5.00,0.00,30.4,29.4,00.0,39.3,32.1,09.1,0000.0,0013.96,0002.80,0001.07
2021-12-02 18:51:00,,0827.5,5.00,0.00,30.4,29.5,00.0,39.3,32.2,09.0,0000.0,0013.79,0002.91,0001.09
2021-12-02 18:52:00,,0827.4,5.00,0.00,30.4,29.6,00.0,39.3,32.2,08.8,0000.0,0013.83,0002.94,0001.10
2021-12-02 18:53:00,,0827.4,5.00,0.00,30.5,29.6,00.0,39.3,32.3,08.6,0000.0,0014.22,0002.95,0001.11
2021-12-02 18:54:00,,0827.4,4.99,0.00,30.5,29.7,00.0,39.3,32.3,08.5,0000.0,0013.85,0002.91,0001.12
2021-12-02 18:55:00,,0827.4,5.00,0.00,30.6,29.0,00.0,39.4,32.2,08.4,0000.0,0014.02,0002.93,0001.11
2021-12-02 18:56:00,,0827.3,5.02,0.00,30.4,26.9,00.0,39.3,31.6,08.4,0000.0,0014.57,0002.90,0001.09
2021-12-02 18:57:00,,0827.3,5.00,0.00,30.2,26.1,00.0,39.3,31.4,08.5,0000.0,0013.85,0002.87,0001.07
2021-12-02 18:58:00,,0827.2,4.99,0.00,30.1,26.5,00.0,39.2,31.5,08.6,0000.0,0013.60,0002.84,0001.05
2021-12-02 18:59:00,,0827.3,5.02,0.00,30.1,27.0,00.0,39.2,31.6,08.6,0000.0,0013.77,0002.83,0001.03
